Flag for Israel Weather past 2 weeks in Ramat Gan, Israel

Now
84 °F

Scattered clouds.


Feels Like: 87 °F
Forecast: 76 / 87 °F
Wind: 8 mph from Northwest

Location: Dov Airport

Current Time: Sep 5, 2015 at 11:03:25 AM

Latest Report: Sep 5, 2015 at 9:50 AM


Visibility: N/A

Pressure: 29.89 "Hg

Humidity: 58%

Dew point: 68 °F

Location of Ramat GanLocation

Historic Weather in Ramat Gan — Graph

°F

Ramat Gan temperature yesterday

Maximum temperature yesterday: 88 °F (at 11:50 AM)
Minimum temperature yesterday: 82 °F (at 5:50 AM)
Average temperature yesterday: 85 °F

Past Weeks' High & Low Weather Summary

 TemperatureHumidityPressure
High90 °F (Aug 23, 2:50 PM)79% (Aug 23, 4:50 AM)29.89 "Hg (Aug 23, 4:50 AM)
Low77 °F (Aug 26, 4:50 AM)49% (Aug 25, 12:50 PM)29.71 "Hg (Aug 22, 4:50 PM)
Average85 °F65%29.80 "Hg
* Reported Aug 21 9:50 AM — Sep 5 9:50 AM, Ramat Gan, Weather by CustomWeather, © 2015

Note: Actual official high and low records may vary slightly from our data, if they occured in-between our weather recording intervals... More about our weather records

Advertising

Ramat Gan weather history for previous 24 hours

 ConditionsComfort  
Time TempWeatherWind HumidityBarometerVisibility
9:50 AM
Sat, Sep 5
84 °FScattered clouds.8 mph58%29.89 "HgN/A
8:50 AM84 °FPassing clouds.7 mph55%29.86 "HgN/A
7:50 AM82 °FPassing clouds.7 mph58%29.86 "HgN/A
6:50 AM81 °FPassing clouds.7 mph62%29.86 "HgN/A
6:00 AM81 °FPassing clouds.7 mph62%29.83 "HgN/A
9:50 PM
Fri, Sep 4
82 °FPassing clouds.8 mph66%29.86 "HgN/A
8:50 PM82 °FPassing clouds.8 mph66%29.83 "HgN/A
7:50 PM82 °FPassing clouds.12 mph62%29.83 "HgN/A
6:50 PM84 °FScattered clouds.12 mph58%29.83 "HgN/A
5:50 PM86 °FPassing clouds.10 mph55%29.83 "HgN/A
4:50 PM86 °FPassing clouds.13 mph59%29.83 "HgN/A
3:50 PM86 °FScattered clouds.12 mph59%29.83 "HgN/A
2:50 PM88 °FScattered clouds.12 mph55%29.83 "HgN/A
1:50 PM88 °FScattered clouds.12 mph55%29.83 "HgN/A
12:50 PM86 °FPassing clouds.10 mph59%29.83 "HgN/A
11:50 AM88 °FPassing clouds.9 mph59%29.83 "HgN/A
Weather by CustomWeather, © 2015

See weather overviewHow to use our weather pages